[[{"header":{"parameterUnit":"m.s-1","parameterCategory":1,"la1":30.2991,"la2":30.254,"lo1":-89.0895,"lo2":-89.0444,"dy":0.0017,"dx":0.0017,"nx":28,"ny":28,"refTime":"2024-06-18T21:00:00:Z","depth":0,"parameterNumber":2,"parameterNumberName":"U-component_of_WINDS"},"data":[0,0,0,0,0,0,0,0,0,0,0,0,0,0,0,0,0,0,0,0,0,0,0,0,0,0,0,0,0,0,0,0,0,0,0,0,0,0,0,0,0,0,0,0,0,0,0,0,0,0,0,0,0,0,0,0,0,0,-7.9775,-7.9775,0,-7.9741,-7.974,-7.974,-7.9522,-7.9517,-7.9512,-7.9507,-7.9474,-7.9478,-7.9482,0,0,0,0,0,0,0,0,0,0,0,0,0,-7.9657,-7.966,-7.9775,-7.9775,-7.9774,-7.9741,-7.974,-7.974,-7.9523,-7.9517,-7.951,-7.9504,-7.9473,-7.9478,-7.9483,0,0,0,0,0,0,0,0,0,0,0,0,0,-7.9674,-7.9661,-7.9775,-7.9662,-7.9652,-7.9741,-7.974,-7.974,-7.9525,-7.9517,-7.9509,-7.9501,-7.9472,-7.9477,-7.9483,-7.9679,0,0,-7.9502,-7.9505,0,0,0,0,0,0,0,0,-7.9673,-7.9679,-7.9679,-7.967,-7.9659,-7.9627,-7.9686,-7.972,-7.9527,-7.9573,-7.9507,-7.9497,-7.9532,-7.9533,-7.9544,-7.9678,-7.9676,-7.9503,-7.9506,-7.9509,-7.9511,0,0,0,0,0,0,0,-7.9672,-7.9679,-7.9761,-7.968,-7.9667,-7.9614,-7.9608,-7.9692,-7.9597,-7.9568,-7.9552,-7.9551,-7.9525,-7.9538,-7.9541,-7.9676,-7.9502,-7.9508,-7.9512,-7.9514,-7.9969,-7.9977,0,0,0,0,0,0,-7.9687,-7.9679,-7.9763,-7.976,-7.9647,-7.9623,-7.9616,-7.9646,-7.9596,-7.9581,-7.9558,-7.9541,-7.9532,-7.9534,-7.9539,-7.9765,-7.9509,-7.9515,-7.9518,-7.9961,-7.9971,-7.998,0,0,0,0,0,0,-7.9685,-7.9696,-7.9764,-7.9716,-7.972,-7.9633,-7.9669,-7.9649,-7.9662,-7.9588,-7.957,-7.9589,-7.9526,-7.9531,-7.9646,-7.9761,-7.9517,-7.9523,-7.9951,-7.9964,-7.9976,-8.0219,0,0,0,0,0,0,-7.9682,-7.9697,-7.977,-7.9719,-7.9724,-7.9871,-7.9676,-7.9654,-7.9673,-7.9651,-7.9612,-7.9598,-7.952,-7.9638,-7.9652,-7.9765,-7.9528,-7.994,-7.9957,-7.9972,-8.0201,-8.0239,-8.0272,0,0,0,0,0,-7.9679,-7.984,-7.9775,-7.9786,-7.9813,-7.9878,-7.9881,-7.9786,-7.9683,-7.9756,-7.9708,-7.96,-7.9746,-7.9652,-7.9666,-7.9782,-7.9933,-7.9952,-7.9971,-8.0185,-8.0231,-8.0271,0,0,0,0,0,0,-7.9908,-7.9832,-7.9758,-7.9907,-7.9901,-7.9841,-7.993,-7.9839,-7.9862,-7.9841,-7.9723,-7.9716,-7.985,-7.9827,-7.9723,-7.9969,-7.9821,-7.9844,-7.9979,-8.0023,-8.0057,-8.006,-7.9533,0,0,0,0,0,-7.9976,-8.0035,-7.9965,-8.0104,-8.0104,-8.0019,-8.0044,-7.9971,-7.996,-7.9957,-7.9917,-7.9912,-7.9956,-7.9988,-8.0025,-8.0196,-8.0185,-8.0284,-8.0319,-8.0348,-8.037,-8.0459,-8.0502,-8.0043,-8.0043,-8.0042,0,0,-8.0117,-8.0082,-8.0127,-8.0149,-8.0135,-8.02,-8.0018,-8.0093,-8.014,-7.9968,-8.0074,-8.0046,-8.0032,-8.0176,-8.0238,-8.0162,-8.0494,-8.0373,-8.0397,-8.0402,-8.0483,-8.0527,-8.0565,-8.0056,-8.0053,-8.0051,0,0,-8.0407,-8.0386,-8.0499,-8.049,-8.0471,-8.0413,-8.0441,-8.0395,-8.0369,-8.0474,-8.0346,-8.0401,-8.048,-8.0475,-8.0483,-8.0772,-8.0673,-8.0787,-8.0972,-8.1061,-8.1097,-8.1129,-8.1232,-8.127,-8.0808,-8.0809,-8.081,0,-8.0584,-8.0675,-8.057,-8.0654,-8.0667,-8.0514,-8.0628,-8.0624,-8.062,-8.0633,-8.0547,-8.0644,-8.0623,-8.0765,-8.0835,-8.0847,-8.0875,-8.0791,-8.11,-8.1131,-8.1159,-8.1256,-8.1295,-8.0823,-8.0822,-8.082,-8.0819,0,-8.0895,-8.096,-8.1054,-8.1052,-8.1076,-8.1175,-8.1086,-8.1123,-8.105,-8.1001,-8.111,-8.108,-8.1109,-8.1137,-8.1066,-8.1269,-8.1222,-8.1121,-8.0969,-8.1218,-8.1308,-8.1344,-8.0843,-8.0838,-8.0834,-8.0831,0,0,-8.1328,-8.1266,-8.1303,-8.13,-8.1268,-8.1317,-8.141,-8.1436,-8.1471,-8.1473,-8.1548,-8.1619,-8.1525,-8.1534,-8.1461,-8.1539,-8.177,-8.1427,-8.1425,-8.1493,-8.1993,-8.207,-8.2114,-8.1704,-8.1711,-8.1716,-8.1994,0,-8.1605,-8.1758,-8.1667,-8.1834,-8.1893,-8.1749,-8.1829,-8.1819,-8.1777,-8.1822,-8.1774,-8.1827,-8.1698,-8.1703,-8.1774,-8.1728,-8.1869,-8.1706,-8.1774,-8.1778,-8.1782,-8.2161,-8.2242,-8.2506,-8.2028,-8.2034,-8.2038,0,-8.195,-8.1966,-8.2139,-8.2096,-8.2117,-8.2191,-8.2208,-8.2253,-8.2239,-8.2203,-8.2214,-8.2122,-8.221,-8.2061,-8.2182,-8.2073,-8.2096,-8.2078,-8.2086,-8.2088,-8.1923,-8.2174,-8.2587,-8.2627,-8.2092,-8.2088,-8.2084,0,-8.2248,-8.2314,-8.2425,-8.2428,-8.238,-8.2436,-8.2419,-8.2397,-8.2419,-8.2435,-8.2448,-8.2475,-8.249,-8.2513,-8.2431,-8.2329,-8.2563,-8.2407,-8.2536,-8.2539,-8.2592,-8.259,-8.3015,-8.2607,-8.2607,-8.2606,-8.2605,0,-8.2568,-8.268,-8.2559,-8.2628,-8.2749,-8.2643,-8.2766,-8.2734,-8.2716,-8.2777,-8.2654,-8.2714,-8.2602,-8.2651,-8.2588,-8.2698,-8.2706,-8.268,-8.2661,-8.2691,-8.2694,-8.2704,-8.2683,-8.2616,-8.2614,-8.2612,-8.261,0,-8.2922,-8.2845,-8.2958,-8.2904,-8.2893,-8.2985,-8.2938,-8.3001,-8.295,-8.3029,-8.3041,-8.2962,-8.3014,-8.2934,-8.2977,-8.2934,-8.3087,-8.3041,-8.3092,-8.3078,-8.3212,-8.3201,-8.3658,-8.3713,-8.3271,-8.3275,-8.3279,0,-8.3131,-8.3214,-8.3168,-8.32,-8.3189,-8.3242,-8.3263,-8.3163,-8.3191,-8.3181,-8.3245,-8.3286,-8.3313,-8.3403,-8.335,-8.3382,-8.3336,-8.3494,-8.334,-8.3367,-8.3339,-8.3335,-8.3343,-8.3526,-8.3531,-8.3536,-8.3539,0,-8.3511,-8.3469,-8.3504,-8.3527,-8.3556,-8.3569,-8.3574,-8.3607,-8.35,-8.3538,-8.3589,-8.361,-8.3653,-8.3696,-8.3715,-8.3698,-8.3603,-8.3588,-8.362,-8.365,-8.3677,-8.3664,-8.3178,-8.3578,-8.3574,-8.3571,-8.3569,-8.3568,-8.3798,-8.3865,-8.3843,-8.3887,-8.3879,-8.3886,-8.3942,-8.3898,-8.3938,-8.3964,-8.3903,-8.3969,-8.3953,-8.3969,-8.3963,-8.4014,-8.3945,-8.3991,-8.4002,-8.4015,-8.4036,-8.3669,-8.4017,-8.4016,-8.4015,-8.4014,-8.4013,0,-8.4171,-8.415,-8.4191,-8.4201,-8.4236,-8.4141,-8.4141,-8.4177,-8.4236,-8.4229,-8.4258,-8.4317,-8.4358,-8.4309,-8.4341,-8.4391,-8.4348,-8.4403,-8.4398,-8.4396,-8.4096,-8.4066,-8.4437,-8.4437,-8.4437,-8.4437,-8.4437,-8.4437,-8.4369,-8.4477,-8.4433,-8.4536,-8.4513,-8.4576,-8.4585,-8.4591,-8.4585,-8.4655,-8.4688,-8.4655,-8.4632,-8.4661,-8.4695,-8.468,-8.4697,-8.4769,-8.4738,-8.4459,-8.4417,-8.4378,-8.4348,-8.4773,-8.4774,-8.5033,-8.5036,-8.5038]},{"header":{"parameterUnit":"m.s-1","parameterCategory":1,"la1":30.2991,"la2":30.254,"lo1":-89.0895,"lo2":-89.0444,"dy":0.0017,"dx":0.0017,"nx":28,"ny":28,"refTime":"2024-06-18T21:00:00:Z","depth":0,"parameterNumber":3,"parameterNumberName":"V-component_of_WINDS"},"data":[0,0,0,0,0,0,0,0,0,0,0,0,0,0,0,0,0,0,0,0,0,0,0,0,0,0,0,0,0,0,0,0,0,0,0,0,0,0,0,0,0,0,0,0,0,0,0,0,0,0,0,0,0,0,0,0,0,0,-0.8309,-0.8309,0,-0.8338,-0.8339,-0.8339,-0.8365,-0.8365,-0.8365,-0.8365,-0.8393,-0.8394,-0.8394,0,0,0,0,0,0,0,0,0,0,0,0,0,-0.8272,-0.8273,-0.8309,-0.8309,-0.831,-0.8338,-0.8339,-0.8339,-0.8364,-0.8365,-0.8365,-0.8366,-0.8393,-0.8394,-0.8394,0,0,0,0,0,0,0,0,0,0,0,0,0,-0.8293,-0.8273,-0.8309,-0.8326,-0.8328,-0.8338,-0.8339,-0.8339,-0.8364,-0.8365,-0.8365,-0.8366,-0.8393,-0.8394,-0.8394,-0.839,0,0,-0.8396,-0.8397,0,0,0,0,0,0,0,0,-0.8292,-0.8295,-0.8323,-0.8325,-0.8327,-0.8348,-0.8336,-0.8356,-0.8364,-0.835,-0.8365,-0.8366,-0.8378,-0.838,-0.8384,-0.8391,-0.8392,-0.8396,-0.8397,-0.8397,-0.8397,0,0,0,0,0,0,0,-0.8291,-0.8294,-0.8321,-0.8323,-0.8326,-0.8331,-0.8335,-0.834,-0.8361,-0.8352,-0.8354,-0.8357,-0.8379,-0.8383,-0.8385,-0.8393,-0.8396,-0.8397,-0.8397,-0.8398,-0.8396,-0.8395,0,0,0,0,0,0,-0.8287,-0.8292,-0.832,-0.8321,-0.831,-0.8331,-0.8335,-0.8341,-0.8361,-0.8365,-0.8356,-0.8358,-0.8382,-0.8384,-0.8386,-0.8381,-0.8397,-0.8398,-0.8398,-0.8396,-0.8396,-0.8395,0,0,0,0,0,0,-0.8286,-0.8289,-0.8318,-0.8307,-0.8312,-0.8332,-0.8338,-0.8341,-0.8346,-0.8365,-0.8368,-0.8357,-0.8382,-0.8385,-0.8388,-0.8382,-0.8398,-0.8399,-0.8397,-0.8396,-0.8395,-0.8371,0,0,0,0,0,0,-0.8285,-0.8289,-0.8288,-0.8307,-0.8312,-0.8321,-0.8337,-0.8341,-0.8347,-0.835,-0.8367,-0.837,-0.8383,-0.8387,-0.8389,-0.8384,-0.8399,-0.8397,-0.8396,-0.8396,-0.8373,-0.837,-0.8368,0,0,0,0,0,-0.8283,-0.828,-0.8288,-0.8291,-0.8312,-0.8321,-0.8323,-0.8339,-0.8347,-0.8345,-0.8357,-0.8369,-0.8383,-0.8387,-0.839,-0.8384,-0.8398,-0.8397,-0.8396,-0.8374,-0.8371,-0.8368,0,0,0,0,0,0,-0.8258,-0.8283,-0.8292,-0.8294,-0.8305,-0.8325,-0.8324,-0.8335,-0.8344,-0.8345,-0.8364,-0.8368,-0.8368,-0.8377,-0.8381,-0.838,-0.8392,-0.8391,-0.8375,-0.8371,-0.8369,-0.8366,-0.84,0,0,0,0,0,-0.8253,-0.826,-0.828,-0.828,-0.8286,-0.8304,-0.8308,-0.832,-0.8331,-0.8336,-0.8348,-0.8359,-0.8365,-0.8369,-0.8376,-0.8375,-0.8378,-0.8372,-0.8369,-0.8367,-0.8366,-0.8364,-0.8361,-0.8392,-0.8392,-0.8392,0,0,-0.8243,-0.8257,-0.8259,-0.8276,-0.8286,-0.829,-0.8307,-0.8312,-0.8316,-0.8336,-0.834,-0.835,-0.8362,-0.8363,-0.8364,-0.837,-0.8358,-0.8366,-0.8364,-0.8364,-0.8363,-0.836,-0.8357,-0.8391,-0.8391,-0.8391,0,0,-0.8226,-0.8237,-0.8238,-0.8248,-0.8263,-0.8275,-0.8275,-0.8293,-0.83,-0.8304,-0.8319,-0.8324,-0.8335,-0.8343,-0.8348,-0.8334,-0.8344,-0.8335,-0.8321,-0.8319,-0.8317,-0.8315,-0.8308,-0.8306,-0.8334,-0.8334,-0.8334,0,-0.821,-0.8219,-0.8237,-0.8241,-0.8247,-0.8267,-0.8267,-0.8275,-0.8291,-0.8294,-0.8301,-0.8315,-0.8325,-0.8327,-0.8324,-0.8328,-0.8328,-0.8333,-0.8316,-0.8314,-0.8312,-0.8306,-0.8304,-0.8333,-0.8333,-0.8333,-0.8334,0,-0.8199,-0.8205,-0.8203,-0.8219,-0.8225,-0.8227,-0.8244,-0.8248,-0.8258,-0.8269,-0.8273,-0.8285,-0.8295,-0.8297,-0.8307,-0.8299,-0.8303,-0.8313,-0.8324,-0.8308,-0.8302,-0.83,-0.8331,-0.8332,-0.8332,-0.8332,0,0,-0.8166,-0.8192,-0.8191,-0.8197,-0.8215,-0.8219,-0.8222,-0.8231,-0.8234,-0.8244,-0.8245,-0.8254,-0.8263,-0.8269,-0.8281,-0.8279,-0.8265,-0.8289,-0.829,-0.8283,-0.8256,-0.8247,-0.8244,-0.8273,-0.8272,-0.8272,-0.8254,0,-0.8151,-0.8157,-0.8173,-0.8173,-0.8178,-0.8197,-0.8198,-0.8209,-0.8219,-0.8224,-0.8235,-0.824,-0.8253,-0.8256,-0.8256,-0.8267,-0.8259,-0.8269,-0.8273,-0.8273,-0.8268,-0.8242,-0.8233,-0.8215,-0.8252,-0.8252,-0.8252,0,-0.8134,-0.8143,-0.8144,-0.8161,-0.8163,-0.8165,-0.8174,-0.8179,-0.8191,-0.8198,-0.8205,-0.8217,-0.822,-0.8231,-0.8234,-0.824,-0.8243,-0.8248,-0.8248,-0.8248,-0.826,-0.8239,-0.821,-0.8207,-0.8249,-0.8249,-0.8249,0,-0.8108,-0.8121,-0.8123,-0.8128,-0.8148,-0.8148,-0.8156,-0.8169,-0.8173,-0.8181,-0.8184,-0.8192,-0.8196,-0.8202,-0.8216,-0.8224,-0.8216,-0.823,-0.8221,-0.8221,-0.8218,-0.8218,-0.8187,-0.8222,-0.8222,-0.8222,-0.8222,0,-0.8089,-0.8088,-0.8112,-0.8113,-0.8112,-0.813,-0.8129,-0.8139,-0.8149,-0.8152,-0.8168,-0.817,-0.8189,-0.8193,-0.8204,-0.8203,-0.8206,-0.8211,-0.8213,-0.8208,-0.8207,-0.8209,-0.821,-0.8222,-0.8222,-0.8222,-0.8222,0,-0.806,-0.8076,-0.8079,-0.8097,-0.8101,-0.81,-0.8115,-0.8116,-0.8127,-0.813,-0.8132,-0.8149,-0.8154,-0.8169,-0.8178,-0.8185,-0.818,-0.8187,-0.8176,-0.8178,-0.8168,-0.8168,-0.8137,-0.8133,-0.8171,-0.8171,-0.8171,0,-0.8045,-0.8045,-0.8064,-0.8067,-0.8074,-0.8079,-0.8083,-0.8101,-0.8105,-0.8117,-0.8117,-0.8123,-0.8129,-0.8136,-0.8148,-0.8155,-0.816,-0.8149,-0.8161,-0.8156,-0.8158,-0.8157,-0.8156,-0.8146,-0.8145,-0.8145,-0.8144,0,-0.8018,-0.8026,-0.8032,-0.8041,-0.8046,-0.8053,-0.8062,-0.8063,-0.8083,-0.8086,-0.8091,-0.8096,-0.8105,-0.811,-0.8119,-0.8126,-0.8138,-0.8141,-0.8139,-0.8133,-0.8126,-0.8128,-0.8167,-0.8141,-0.8141,-0.8141,-0.8142,-0.8142,-0.7995,-0.7995,-0.8007,-0.8014,-0.8022,-0.8029,-0.8031,-0.8042,-0.8047,-0.8056,-0.8066,-0.807,-0.808,-0.8093,-0.8099,-0.8102,-0.8108,-0.8106,-0.8105,-0.8104,-0.81,-0.8127,-0.8104,-0.8104,-0.8104,-0.8104,-0.8104,0,-0.7967,-0.7975,-0.7981,-0.7992,-0.7997,-0.8008,-0.8018,-0.8021,-0.8024,-0.8033,-0.8039,-0.8044,-0.8049,-0.8063,-0.8069,-0.8068,-0.8074,-0.8069,-0.8068,-0.8069,-0.8095,-0.8095,-0.8065,-0.8065,-0.8065,-0.8065,-0.8065,-0.8065,-0.7952,-0.7953,-0.7962,-0.7966,-0.7975,-0.7979,-0.7983,-0.799,-0.7997,-0.8003,-0.8007,-0.8016,-0.8026,-0.8033,-0.8038,-0.8042,-0.8043,-0.8036,-0.8041,-0.8064,-0.8068,-0.8071,-0.8072,-0.8036,-0.8036,-0.8015,-0.8015,-0.8015]}]]